Regional Weather Roundup
Issued by NWS

Home | Current Version | Previous Version | Text Only | Print | Product List | Glossary Off
Versions: 1 2 3 4 5 6 7 8 9 10 11 12 13 14 15 16 17 18 19 20 21 22 23 24 25 26 27 28 29 30 31 32 33 34 35 36 37 38 39 40 41 42 43 44 45 46 47 48 49 50

000
ASUS43 KMKX 300721
RWRWI

WISCONSIN REGIONAL WEATHER ROUNDUP
NATIONAL WEATHER SERVICE MILWAUKEE/SULLIVAN WI
200 AM CDT WED JUL 30 2014

NOTE: "FAIR" INDICATES FEW OR NO CLOUDS BELOW 12,000 FEET WITH NO
SIGNIFICANT WEATHER AND/OR OBSTRUCTIONS TO VISIBILITY.

WIZ001-002-006>008-014>016-023>028-300800-
NORTHWEST WISCONSIN

CITY           SKY/WX    TMP DP  RH WIND       PRES   REMARKS
SUPERIOR ARPT  FOG       52  52 100 CALM      30.05S VSB 1/4
ASHLAND        CLOUDY    51  50  96 CALM      30.06S
HAYWARD        FOG       50  50 100 CALM      30.07R VSB 1/4
SIREN          CLEAR     56  56  97 W3        30.06F FOG
RICE LAKE      CLEAR     56  55  94 CALM      30.07R
LADYSMITH      CLEAR     56  55  95 N6        30.07R
EAU CLAIRE     PTCLDY    59  57  93 CALM      30.04S
MENOMONIE      MOSUNNY   60  57  89 W7        30.05S
NEW RICHMOND   CLEAR     57  56  95 CALM      30.06F
OSCEOLA        MOCLDY    57  57  99 CALM      30.09S
$$

WIZ003>005-009-010-017-018-300800-
NORTH CENTRAL WISCONSIN

CITY           SKY/WX    TMP DP  RH WIND       PRES   REMARKS
WOODRUFF       CLEAR     53  51  92 N7        30.05S
RHINELANDER    CLEAR     52  51  97 CALM      30.05S
EAGLE RIVER    CLEAR     48  48 100 CALM      30.04S FOG
LAND O LAKES   CLOUDY    54  54 100 N3        30.05F
PHILLIPS       MOCLDY    52  52 100 NW3       30.05R FOG
TOMAHAWK       FOG       47  47  97 CALM      30.05S VSB 1/4
MEDFORD        PTCLDY    53  53  99 NW6       30.04S
MERRILL        FOG       49  49 100 CALM      30.04S VSB 1/4
$$

WIZ029-030-035-036-043>047-300800-
CENTRAL WISCONSIN

CITY           SKY/WX    TMP DP  RH WIND       PRES   REMARKS
WAUSAU         CLEAR     56  54  93 NW7       30.01S
MOSINEE        CLEAR     54  54 100 NW6       30.04S
MARSHFIELD     PTCLDY    56  54  93 NW5       30.03R
STEVENS POINT  PTCLDY    53  51  95 CALM      30.03S
WAUPACA        MOCLDY    60  56  86 NW3       30.01S
WAUTOMA        CLEAR     57  55  93 CALM      30.02S
WISC RAPIDS    MOCLDY    57  56  96 NW5       30.04S
CAMP DOUGLAS   PTCLDY    54  54 100 W5        30.03S FOG
$$

WIZ011>013-019>022-031-037>040-048>050-300800-
NORTHEAST WISCONSIN

CITY           SKY/WX    TMP DP  RH WIND       PRES   REMARKS
ANTIGO         CLEAR     51  51  99 N5        30.03S
STURGEON BAY   PTCLDY    59  55  88 NE5       30.00R
GREEN BAY      CLOUDY    59  58  96 NW5       29.99S
MANITOWOC      CLOUDY    59  57  93 MISG      29.99S
APPLETON       CLEAR     55  54  94 NW8       30.00S
CLINTONVILLE   CLOUDY    59  55  88 N6        30.00S
OSHKOSH        CLEAR     58  56  93 W5        29.99S
$$

WIZ032>034-041-042-053>061-300800-
SOUTHWEST WISCONSIN

CITY           SKY/WX    TMP DP  RH WIND       PRES   REMARKS
LA CROSSE      CLEAR     61  58  90 E3        30.03F FOG
SPARTA         FOG       55  55  97 CALM      30.05S VSB 1/2
VIROQUA        FAIR      57  57 100 W3        30.05S
BOSCOBEL       PTCLDY    61  58  90 CALM      30.03F
PRAIRIE DU CHI PTCLDY    63  57  80 CALM      30.04S
PLATTEVILLE    MOCLDY    61  58  91 W3        30.05F
$$

WIZ056-057-062-063-064-067-068-300800-
SOUTH CENTRAL WISCONSIN

CITY           SKY/WX    TMP DP  RH WIND       PRES   REMARKS
BARABOO/DELLS  MOCLDY    57  55  91 CALM      30.02F
LONE ROCK      PTCLDY    63  58  83 CALM      30.03F
WATERTOWN      PTCLDY    56  56  99 CALM      30.01F
MADISON        PTCLDY    61  56  83 CALM      30.02F
MIDDLETON      FAIR      58  56  94 W3        30.03S
MONROE         PTCLDY    61  57  88 W7        30.03S
JANESVILLE     PTCLDY    57  54  88 CALM      30.01F
$$

WIZ051-052-058>065-066-070>072-300800-
SOUTHEAST WISCONSIN

CITY           SKY/WX    TMP DP  RH WIND       PRES   REMARKS
MILWAUKEE      PTCLDY    60  55  83 W7        30.00S
WAUKESHA       CLEAR     54  52  94 CALM      30.01F
MILWAUKEE/TIMM CLEAR     57  54  88 W7        30.00F
RACINE         MOCLDY    59  56  89 W6        30.01S
BURLINGTON     CLEAR     54  53  97 SW3       30.01S
KENOSHA        CLEAR     56  54  93 W5        30.00F
FOND DU LAC    CLEAR     56  54  93 SW5       30.00F
SHEBOYGAN      CLEAR     58  55  90 W7        29.98F
WEST BEND      CLOUDY    55  52  88 W6        30.00S
JUNEAU         PTCLDY    55  54  96 SW3       30.02F
$$

LSZ147-162-300800-
LAKE SUPERIOR

STATION/POSITION TIME  TEMP    WIND        PRES    WAVE
                       AIR SEA DIR/SP/G            HT/PER
                 (UTC) (F)     (DEG/KT/KT) (MB)    (FT/S)
W MID LAKE BUOY  0650   44 43  210/  4/  4 1017.7S   0
PORT WING        0640   55     160/  3/  4 1017.9R
SAXON HARBOR     0600             CALM     1017.6R
$$

LMZ867-665-643>646-300800-
LAKE MICHIGAN

STATION/POSITION TIME  TEMP    WIND        PRES    WAVE
                       AIR SEA DIR/SP/G            HT/PER
                 (UTC) (F)     (DEG/KT/KT) (MB)    (FT/S)
N MID LAKE BUOY  0650   56 54  340/  6/  8 1014.8S   0
NORTHPORT PIER   0600   61      10/  4/  6 1015.6S
SISTER BAY       0640   58        CALM       N/A
ALGOMA LAKESHORE 0621           40/  8/ 10   N/A
KEWAUNEE LAKESHO 0700   58      20/  2/  3 1016.1S
SHEBOYGAN LAKESH 0700   62     280/ 10/ 12 1015.2F
PORT WASHINGTON  0640   60     300/  7/ 10 1015.9S
ATWATER BUOY     0700   62     250/ 14     1016.2F
MILWAUKEE LAKESH 0700   61     290/  9/ 12   N/A
S MID LAKE BUOY  0650   61 61  310/  2/  2 1015.7F   1
KENOSHA   LAKESH 0700   61     270/  9/ 12 1015.6S
$$

TC  - TEMPERATURE IN CELSIUS
VSB - VISIBILITY IN STATUTE MILES
WCI - WIND CHILL INDEX
HX  - HEAT INDEX




USA.gov is the U.S. government's official web portal to all federal, state and local government web resources and services.